Hamlet, NC

10:01 PM EST on February 09, 2016 (GMT -0500)
Rockingham

Weather History for KRCZ - April, 2013

Change the Weather History Date:

Saturday, April 27, 2013

  Actual Average (KHFF) Record (KHFF)
Temperature  
Mean Temperature 63 °F -  
Max Temperature 72 °F 74 °F 86 °F (2011)
Min Temperature 54 °F 53 °F 42 °F (2001)
Degree Days  
Heating Degree Days 2    
Growing Degree Days 13 (Base 50)    
Moisture  
Dew Point 49 °F    
Average Humidity 68    
Maximum Humidity 99    
Minimum Humidity 34    
Precipitation  
Precipitation 0.02 in - - ()
Sea Level Pressure  
Sea Level Pressure 30.33 in    
Wind  
Wind Speed 2 mph (SE)    
Max Wind Speed 12 mph    
Max Gust Speed 20 mph    
Visibility 9 miles    
Events Rain    
Averages and records for this station are not official NWS values.
T = Trace of Precipitation, MM = Missing Value Source: NWS Daily Summary

Daily Weather History Graph

Daily Weather History Graph

Search for Another Location

Airport or City:

Trip Planner

Search our weather history database for the weather conditions in past years. The results will help you decide how hot, cold, wet, or windy it might be!

Date:

Astronomy

Apr. 27, 2013 Rise Set
Actual Time 6:32 AM EDT 8:01 PM EDT
Civil Twilight 6:05 AM EDT 8:28 PM EDT
Nautical Twilight 5:33 AM EDT 9:00 PM EDT
Astronomical Twilight 5:00 AM EDT 9:34 PM EDT
Moon 10:24 PM EDT (4/27) 7:53 AM EDT (4/27)
Length of Visible Light 14h 22m
Length of Day
13h 28m
Waning Gibbous, 95% of the Moon is Illuminated
Apr 27
Waning Gibbous
May 2
Last Quarter
May 9
New
May 18
First Quarter
May 25
Full

Hourly Weather History & Observations

Time (EDT) Temp. Dew Point Humidity Pressure Visibility Wind Dir Wind Speed Gust Speed Precip Events Conditions
12:15 AM 58.1 °F 44.8 °F 61% 30.35 in 10.0 mi ESE 4.6 mph - N/A   Clear
12:35 AM 57.4 °F 44.6 °F 62% 30.36 in 10.0 mi East 3.5 mph - N/A   Clear
12:55 AM 57.6 °F 43.9 °F 60% 30.36 in 10.0 mi ESE 3.5 mph - N/A   Clear
1:15 AM 57.6 °F 43.3 °F 59% 30.37 in 10.0 mi Calm Calm - N/A   Clear
1:35 AM 56.8 °F 43.9 °F 62% 30.36 in 10.0 mi Calm Calm - N/A   Clear
1:55 AM 56.8 °F 43.5 °F 61% 30.36 in 10.0 mi East 3.5 mph - N/A   Clear
2:15 AM 56.8 °F 43.7 °F 61% 30.36 in 10.0 mi ESE 3.5 mph - N/A   Clear
2:35 AM 57.2 °F 43.0 °F 59% 30.36 in 10.0 mi SE 3.5 mph - N/A   Clear
2:55 AM 56.7 °F 43.0 °F 60% 30.36 in 10.0 mi Calm Calm - N/A   Clear
3:15 AM 56.5 °F 43.0 °F 61% 30.35 in 10.0 mi ESE 3.5 mph - N/A   Clear
3:35 AM 55.9 °F 42.8 °F 61% 30.35 in 10.0 mi East 3.5 mph - N/A   Clear
3:55 AM 55.6 °F 43.2 °F 63% 30.34 in 10.0 mi Calm Calm - N/A   Clear
4:15 AM 55.8 °F 43.0 °F 62% 30.35 in 10.0 mi Calm Calm - N/A   Clear
4:35 AM 55.8 °F 43.9 °F 64% 30.35 in 10.0 mi Calm Calm - N/A   Clear
4:55 AM 55.2 °F 44.6 °F 67% 30.34 in 10.0 mi Calm Calm - N/A   Scattered Clouds
5:15 AM 55.4 °F 45.5 °F 69% 30.34 in 10.0 mi Calm Calm - N/A   Mostly Cloudy
5:35 AM 54.5 °F 47.5 °F 77% 30.34 in 10.0 mi Calm Calm - N/A   Mostly Cloudy
5:55 AM 54.9 °F 46.2 °F 73% 30.34 in 10.0 mi Calm Calm - N/A   Mostly Cloudy
6:15 AM 54.5 °F 47.1 °F 76% 30.34 in 10.0 mi Calm Calm - N/A   Scattered Clouds
7:35 AM 54.7 °F 48.4 °F 79% 30.37 in 10.0 mi Calm Calm - N/A   Overcast
7:55 AM 54.9 °F 48.6 °F 79% 30.38 in 10.0 mi Calm Calm - N/A   Mostly Cloudy
8:15 AM 55.0 °F 49.1 °F 80% 30.38 in 10.0 mi Calm Calm - N/A   Mostly Cloudy
8:35 AM 55.4 °F 49.1 °F 79% 30.38 in 10.0 mi NE 3.5 mph - N/A   Overcast
8:55 AM 55.8 °F 48.7 °F 77% 30.38 in 10.0 mi ENE 3.5 mph - N/A   Overcast
9:15 AM 56.8 °F 49.1 °F 75% 30.38 in 10.0 mi Calm Calm - N/A   Mostly Cloudy
9:35 AM 58.5 °F 50.0 °F 73% 30.37 in 10.0 mi Calm Calm - N/A   Scattered Clouds
9:55 AM 59.7 °F 51.1 °F 73% 30.36 in 10.0 mi ESE 4.6 mph - N/A   Clear
10:15 AM 60.4 °F 51.8 °F 73% 30.36 in 10.0 mi Calm Calm - N/A   Mostly Cloudy
10:35 AM 60.8 °F 52.0 °F 73% 30.36 in 10.0 mi Calm Calm - N/A   Mostly Cloudy
10:55 AM 61.7 °F 52.0 °F 70% 30.37 in 10.0 mi Calm Calm - N/A   Mostly Cloudy
11:15 AM 63.1 °F 52.3 °F 68% 30.37 in 10.0 mi ESE 3.5 mph - N/A   Scattered Clouds
11:35 AM 64.4 °F 52.2 °F 64% 30.36 in 10.0 mi Calm Calm - N/A   Scattered Clouds
11:55 AM 66.4 °F 51.6 °F 59% 30.36 in 10.0 mi Calm Calm - N/A   Clear
12:15 PM 67.3 °F 48.4 °F 51% 30.34 in 10.0 mi SSE 3.5 mph - N/A   Clear
12:35 PM 68.7 °F 46.9 °F 46% 30.34 in 10.0 mi Calm Calm - N/A   Clear
12:55 PM 70.7 °F 44.4 °F 39% 30.33 in 10.0 mi SE 6.9 mph - N/A   Scattered Clouds
1:15 PM 70.7 °F 44.6 °F 39% 30.33 in 10.0 mi East 4.6 mph - N/A   Scattered Clouds
1:35 PM 72.3 °F 44.1 °F 36% 30.32 in 10.0 mi South 4.6 mph - N/A   Scattered Clouds
1:55 PM 72.5 °F 43.2 °F 35% 30.31 in 10.0 mi SE 4.6 mph - N/A   Scattered Clouds
2:15 PM 72.3 °F 42.3 °F 34% 30.31 in 10.0 mi SE 8.1 mph - N/A   Scattered Clouds
2:35 PM 72.0 °F 42.1 °F 34% 30.31 in 10.0 mi Calm Calm - N/A   Clear
2:55 PM 71.4 °F 43.3 °F 36% 30.31 in 10.0 mi ESE 3.5 mph - N/A   Mostly Cloudy
3:15 PM 72.0 °F 42.8 °F 35% 30.30 in 10.0 mi SE 3.5 mph - N/A   Mostly Cloudy
3:35 PM 71.1 °F 42.4 °F 36% 30.31 in 10.0 mi Calm Calm - N/A   Overcast
3:55 PM 70.7 °F 42.1 °F 35% 30.31 in 10.0 mi SSE 5.8 mph - N/A   Mostly Cloudy
4:15 PM 70.9 °F 42.8 °F 36% 30.30 in 10.0 mi SE 4.6 mph - N/A   Scattered Clouds
4:35 PM 70.7 °F 43.2 °F 37% 30.29 in 10.0 mi ESE 4.6 mph - N/A   Clear
4:55 PM 70.3 °F 44.1 °F 39% 30.29 in 10.0 mi Calm Calm - N/A   Mostly Cloudy
5:15 PM 70.0 °F 44.1 °F 39% 30.29 in 10.0 mi SSW 3.5 mph - N/A   Mostly Cloudy
5:35 PM 68.4 °F 48.2 °F 48% 30.30 in 10.0 mi SW 5.8 mph - N/A   Mostly Cloudy
5:55 PM 63.3 °F 54.3 °F 72% 30.32 in 10.0 mi WSW 11.5 mph 19.6 mph N/A Rain Light Rain
6:15 PM 60.4 °F 57.2 °F 89% 30.33 in 10.0 mi West 9.2 mph - N/A Rain Light Rain
6:35 PM 59.9 °F 57.7 °F 93% 30.33 in 7.0 mi WNW 4.6 mph - N/A Rain Rain
6:55 PM 59.5 °F 58.1 °F 95% 30.32 in 7.0 mi WNW 3.5 mph - 0.01 in Rain Light Rain
7:15 PM 59.4 °F 57.7 °F 94% 30.30 in 7.0 mi Calm Calm - N/A Rain Light Rain
7:35 PM 59.2 °F 57.6 °F 94% 30.28 in 7.0 mi Calm Calm - 0.01 in Rain Light Rain
7:55 PM 59.4 °F 58.1 °F 96% 30.30 in 5.0 mi Calm Calm - 0.01 in   Light Drizzle
8:15 PM 59.0 °F 58.1 °F 97% 30.29 in 7.0 mi Calm Calm - N/A   Scattered Clouds
8:35 PM 59.0 °F 58.1 °F 97% 30.28 in 7.0 mi Calm Calm - N/A   Mostly Cloudy
8:55 PM 58.6 °F 58.1 °F 98% 30.28 in 7.0 mi Calm Calm - N/A   Mostly Cloudy
9:15 PM 59.0 °F 57.7 °F 96% 30.29 in 7.0 mi Calm Calm - N/A   Mostly Cloudy
9:35 PM 58.6 °F 57.7 °F 97% 30.30 in 5.0 mi Calm Calm - N/A   Overcast
9:55 PM 58.5 °F 57.7 °F 97% 30.30 in 7.0 mi Calm Calm - N/A   Overcast
10:15 PM 58.1 °F 57.7 °F 99% 30.30 in 5.0 mi Calm Calm - N/A   Mostly Cloudy
10:35 PM 58.1 °F 57.7 °F 99% 30.29 in 7.0 mi Calm Calm - N/A   Mostly Cloudy
10:55 PM 58.1 °F 57.6 °F 98% 30.29 in 7.0 mi East 3.5 mph - N/A   Mostly Cloudy
11:15 PM 58.1 °F 57.4 °F 97% 30.29 in 7.0 mi Calm Calm - N/A   Mostly Cloudy
11:35 PM 57.9 °F 57.4 °F 98% 30.27 in 5.0 mi Calm Calm - N/A   Mostly Cloudy
11:55 PM 57.9 °F 57.2 °F 97% 30.27 in 7.0 mi Calm Calm - N/A   Mostly Cloudy